Flag Weather past 2 weeks in Santa Clara, Cuba

Now
81 °F

Partly sunny.


Feels Like: 86 °F
Forecast: 70 / 86 °F
Wind: 2 mph from North

Location: Cienfuegos - Las Villas

Current Time: Nov 26, 2014 at 10:22:48 AM

Latest Report: Nov 26, 2014 at 9:50 AM


Visibility: N/A

Pressure: 30.09 "Hg

Humidity: 84%

Dew point: 75 °F

Location of Santa ClaraLocation

Historic Weather in Santa Clara — Graph

°F

Santa Clara temperature yesterday

Maximum temperature yesterday: 90 °F (at 12:50 PM)
Minimum temperature yesterday: 72 °F (at 5:58 AM)
Average temperature yesterday: 80 °F

Past Weeks' High & Low Weather Summary

 TemperatureHumidityPressure
High91 °F (Nov 18, 11:51 AM)100% (Nov 12, 12:58 AM)30.12 "Hg (Nov 12, 12:58 AM)
Low59 °F (Nov 12, 5:58 AM)45% (Nov 12, 2:50 PM)29.89 "Hg (Nov 11, 1:50 PM)
Average77 °F84%30.01 "Hg
* Reported Nov 11 8:50 AM — Nov 26 8:52 AM, Santa Clara, Weather by CustomWeather, © 2014

Note: Actual official high and low records may vary slightly from our data, if they occured in-between our weather recording intervals... More about our weather records

Advertising

Santa Clara weather history for previous 24 hours

 ConditionsComfort  
Time TempWeatherWind HumidityBarometerVisibility
8:52 AM
Nov 26
79 °FPassing clouds.2 mph84%30.07 "HgN/A
7:52 AM73 °FPassing clouds.6 mph94%30.04 "Hg6 mi
6:58 AM72 °FMild.3 mph94%30.04 "HgN/A
5:58 AM70 °FMild.6 mph100%30.01 "HgN/A
4:58 AM70 °FMild.5 mph100%30.01 "HgN/A
3:58 AM72 °FMild.3 mph94%29.98 "HgN/A
2:58 AM70 °FMild.3 mph100%29.98 "HgN/A
1:58 AM72 °FMild.6 mph94%29.98 "HgN/A
12:58 AM72 °FMild.3 mph100%29.98 "HgN/A
11:58 PM
Nov 25
73 °FMild.5 mph94%29.98 "HgN/A
10:57 PM75 °FMild.3 mph94%30.01 "HgN/A
9:58 PM77 °FWarm.6 mph94%30.01 "HgN/A
8:58 PM79 °FWarm.6 mph89%30.01 "HgN/A
7:58 PM79 °FWarm.6 mph89%29.98 "HgN/A
6:58 PM81 °FWarm.7 mph84%29.95 "HgN/A
5:58 PM81 °FWarm.6 mph84%29.92 "HgN/A
4:58 PM84 °FWarm.7 mph79%29.92 "HgN/A
3:50 PM86 °FPassing clouds.10 mph70%29.92 "HgN/A
2:50 PM86 °FScattered clouds.12 mph75%29.92 "HgN/A
1:50 PM88 °FScattered clouds.9 mph70%29.95 "HgN/A
12:50 PM90 °FScattered clouds.10 mph63%29.98 "Hg6 mi
11:50 AM88 °FPassing clouds.6 mph66%30.01 "HgN/A
10:51 AM88 °FScattered clouds.3 mph62%30.01 "Hg6 mi
Weather by CustomWeather, © 2014

See weather overviewHow to use our weather pages